Time,TemperatureF,DewpointF,PressureIn,WindDirection,WindDirectionDegrees,WindSpeedMPH,WindSpeedGustMPH,Humidity,HourlyPrecipIn,Conditions,Clouds,dailyrainin,SoftwareType,DateUTC
2013-01-21 00:03:00,51.1,41.0,30.06,NNE,23,0.0,1.6,68,0.00,,,0.00,WUHU216HW,2013-01-21 06:03:00,
2013-01-21 00:08:00,51.3,41.1,30.06,NNE,23,0.0,1.6,68,0.00,,,0.00,WUHU216HW,2013-01-21 06:08:00,
2013-01-21 00:13:00,51.5,41.3,30.06,NNE,23,0.0,0.9,68,0.00,,,0.00,WUHU216HW,2013-01-21 06:13:00,
2013-01-21 00:18:00,51.7,41.5,30.06,NNE,23,0.0,0.0,68,0.00,,,0.00,WUHU216HW,2013-01-21 06:18:00,
2013-01-21 00:23:00,51.7,41.0,30.06,NNE,23,0.0,0.0,67,0.00,,,0.00,WUHU216HW,2013-01-21 06:23:00,
2013-01-21 00:28:00,51.8,41.2,30.06,NNE,23,0.0,0.0,67,0.00,,,0.00,WUHU216HW,2013-01-21 06:28:00,
2013-01-21 00:33:00,51.5,40.9,30.06,North,0,0.0,0.0,67,0.00,,,0.00,WUHU216HW,2013-01-21 06:33:00,
2013-01-21 00:38:00,50.9,40.8,30.06,North,0,0.4,1.3,68,0.00,,,0.00,WUHU216HW,2013-01-21 06:38:00,
2013-01-21 00:43:00,49.9,40.2,30.06,North,0,0.7,1.3,69,0.00,,,0.00,WUHU216HW,2013-01-21 06:43:00,
2013-01-21 00:48:00,49.7,40.3,30.06,North,0,1.6,1.6,70,0.00,,,0.00,WUHU216HW,2013-01-21 06:48:00,
2013-01-21 00:53:00,49.7,40.3,30.06,NNW,338,0.0,1.6,70,0.00,,,0.00,WUHU216HW,2013-01-21 06:53:00,
2013-01-21 00:58:00,49.9,40.5,30.06,NNW,338,0.4,1.6,70,0.00,,,0.00,WUHU216HW,2013-01-21 06:58:00,
2013-01-21 01:03:00,49.7,40.7,30.07,NNW,338,1.8,2.2,71,0.00,,,0.00,WUHU216HW,2013-01-21 07:03:00,
2013-01-21 01:08:00,49.3,40.3,30.07,NNW,338,1.1,2.2,71,0.00,,,0.00,WUHU216HW,2013-01-21 07:08:00,
2013-01-21 01:13:00,48.8,39.8,30.07,North,0,1.6,2.2,71,0.00,,,0.00,WUHU216HW,2013-01-21 07:13:00,
2013-01-21 01:18:00,48.6,40.0,30.07,NNW,338,2.0,2.5,72,0.00,,,0.00,WUHU216HW,2013-01-21 07:18:00,
2013-01-21 01:23:00,48.4,39.8,30.07,North,0,0.9,2.5,72,0.00,,,0.00,WUHU216HW,2013-01-21 07:23:00,
2013-01-21 01:28:00,48.4,39.8,30.07,SE,135,0.0,2.2,72,0.00,,,0.00,WUHU216HW,2013-01-21 07:28:00,
2013-01-21 01:33:00,48.2,39.3,30.07,ESE,113,0.0,1.1,71,0.00,,,0.00,WUHU216HW,2013-01-21 07:33:00,
2013-01-21 01:38:00,47.5,39.2,30.07,East,90,1.1,1.8,73,0.00,,,0.00,WUHU216HW,2013-01-21 07:38:00,
2013-01-21 01:43:00,46.8,38.6,30.06,ENE,68,1.1,1.8,73,0.00,,,0.00,WUHU216HW,2013-01-21 07:43:00,
2013-01-21 01:48:00,46.4,38.6,30.06,NE,45,0.0,1.6,74,0.00,,,0.00,WUHU216HW,2013-01-21 07:48:00,
2013-01-21 01:53:00,46.6,38.8,30.06,NNW,338,0.7,1.6,74,0.00,,,0.00,WUHU216HW,2013-01-21 07:53:00,
2013-01-21 01:58:00,46.6,39.2,30.07,NNE,23,1.8,1.8,75,0.00,,,0.00,WUHU216HW,2013-01-21 07:58:00,
2013-01-21 02:03:00,46.6,39.2,30.07,North,0,2.5,2.5,75,0.00,,,0.00,WUHU216HW,2013-01-21 08:03:00,
2013-01-21 02:08:00,46.8,39.3,30.07,NNW,338,1.3,2.5,75,0.00,,,0.00,WUHU216HW,2013-01-21 08:08:00,
2013-01-21 02:13:00,47.0,39.4,30.07,NE,45,1.8,2.5,75,0.00,,,0.00,WUHU216HW,2013-01-21 08:13:00,
2013-01-21 02:18:00,46.8,39.3,30.07,North,0,0.4,2.0,75,0.00,,,0.00,WUHU216HW,2013-01-21 08:18:00,
2013-01-21 02:23:00,46.4,39.0,30.07,East,90,0.9,2.5,75,0.00,,,0.00,WUHU216HW,2013-01-21 08:23:00,
2013-01-21 02:28:00,46.4,39.0,30.07,North,0,0.4,2.5,75,0.00,,,0.00,WUHU216HW,2013-01-21 08:28:00,
2013-01-21 02:33:00,46.3,38.8,30.08,NNE,23,0.4,2.5,75,0.00,,,0.00,WUHU216HW,2013-01-21 08:33:00,
2013-01-21 02:38:00,46.3,38.8,30.07,ENE,68,1.1,2.0,75,0.00,,,0.00,WUHU216HW,2013-01-21 08:38:00,
2013-01-21 02:43:00,46.4,39.0,30.08,East,90,1.6,1.8,75,0.00,,,0.00,WUHU216HW,2013-01-21 08:43:00,
2013-01-21 02:48:00,46.3,38.8,30.07,ENE,68,1.3,1.8,75,0.00,,,0.00,WUHU216HW,2013-01-21 08:48:00,
2013-01-21 02:53:00,46.1,39.0,30.07,NE,45,1.3,1.8,76,0.00,,,0.00,WUHU216HW,2013-01-21 08:53:00,
2013-01-21 02:58:00,45.7,38.3,30.07,ENE,68,1.1,1.8,75,0.00,,,0.00,WUHU216HW,2013-01-21 08:58:00,
2013-01-21 03:03:00,45.7,38.3,30.07,ENE,68,1.1,1.3,75,0.00,,,0.00,WUHU216HW,2013-01-21 09:03:00,
2013-01-21 03:08:00,45.7,38.3,30.08,NNW,338,1.8,2.2,75,0.00,,,0.00,WUHU216HW,2013-01-21 09:08:00,
2013-01-21 03:13:00,45.7,38.6,30.07,NNE,23,2.2,3.4,76,0.00,,,0.00,WUHU216HW,2013-01-21 09:13:00,
2013-01-21 03:18:00,45.5,38.8,30.07,NE,45,1.1,3.4,77,0.00,,,0.00,WUHU216HW,2013-01-21 09:18:00,
2013-01-21 03:23:00,45.4,38.6,30.07,NNW,338,0.2,2.5,77,0.00,,,0.00,WUHU216HW,2013-01-21 09:23:00,
2013-01-21 03:28:00,45.2,38.4,30.08,North,0,2.2,2.5,77,0.00,,,0.00,WUHU216HW,2013-01-21 09:28:00,
2013-01-21 03:33:00,45.0,38.3,30.08,North,0,2.5,3.6,77,0.00,,,0.00,WUHU216HW,2013-01-21 09:33:00,
2013-01-21 03:38:00,45.0,38.3,30.07,NNW,338,4.0,4.0,77,0.00,,,0.00,WUHU216HW,2013-01-21 09:38:00,
2013-01-21 03:43:00,45.0,38.5,30.07,North,0,3.1,4.0,78,0.00,,,0.00,WUHU216HW,2013-01-21 09:43:00,
2013-01-21 03:48:00,45.0,38.5,30.08,NNW,338,3.6,4.0,78,0.00,,,0.00,WUHU216HW,2013-01-21 09:48:00,
2013-01-21 03:53:00,44.6,38.5,30.08,NNE,23,3.6,7.4,79,0.00,,,0.00,WUHU216HW,2013-01-21 09:53:00,
2013-01-21 03:58:00,44.6,39.2,30.08,NNW,338,4.3,7.4,81,0.00,,,0.00,WUHU216HW,2013-01-21 09:58:00,
2013-01-21 04:03:00,44.8,39.3,30.08,NNE,23,2.7,6.5,81,0.00,,,0.00,WUHU216HW,2013-01-21 10:03:00,
2013-01-21 04:08:00,44.8,39.1,30.08,North,0,2.2,6.5,80,0.00,,,0.00,WUHU216HW,2013-01-21 10:08:00,
2013-01-21 04:13:00,44.8,39.1,30.08,NNE,23,1.3,3.4,80,0.00,,,0.00,WUHU216HW,2013-01-21 10:13:00,
2013-01-21 04:18:00,44.8,39.1,30.08,NE,45,1.1,3.1,80,0.00,,,0.00,WUHU216HW,2013-01-21 10:18:00,
2013-01-21 04:23:00,44.6,38.5,30.08,NE,45,2.0,2.5,79,0.00,,,0.00,WUHU216HW,2013-01-21 10:23:00,
2013-01-21 04:28:00,44.6,38.5,30.08,North,0,4.3,4.3,79,0.00,,,0.00,WUHU216HW,2013-01-21 10:28:00,
2013-01-21 04:33:00,44.5,39.0,30.08,NNW,338,3.6,5.1,81,0.00,,,0.00,WUHU216HW,2013-01-21 10:33:00,
2013-01-21 04:38:00,44.5,39.0,30.08,NE,45,2.0,5.1,81,0.00,,,0.00,WUHU216HW,2013-01-21 10:38:00,
2013-01-21 04:43:00,44.5,39.0,30.08,NNE,23,4.7,5.4,81,0.00,,,0.00,WUHU216HW,2013-01-21 10:43:00,
2013-01-21 04:48:00,44.3,38.8,30.08,NNW,338,4.5,5.8,81,0.00,,,0.00,WUHU216HW,2013-01-21 10:48:00,
2013-01-21 04:53:00,44.3,39.2,30.09,NNE,23,4.9,6.5,82,0.00,,,0.00,WUHU216HW,2013-01-21 10:53:00,
2013-01-21 04:58:00,44.1,39.0,30.09,NNE,23,7.2,8.5,82,0.00,,,0.00,WUHU216HW,2013-01-21 10:58:00,
2013-01-21 05:03:00,43.9,38.4,30.09,NE,45,8.7,8.9,81,0.00,,,0.00,WUHU216HW,2013-01-21 11:03:00,
2013-01-21 05:08:00,43.7,38.3,30.09,NNE,23,5.4,8.9,81,0.00,,,0.00,WUHU216HW,2013-01-21 11:08:00,
2013-01-21 05:13:00,43.6,38.1,30.09,North,0,3.6,8.7,81,0.00,,,0.00,WUHU216HW,2013-01-21 11:13:00,
2013-01-21 05:18:00,43.4,37.9,30.10,NNE,23,4.7,6.9,81,0.00,,,0.00,WUHU216HW,2013-01-21 11:18:00,
2013-01-21 05:23:00,43.2,37.7,30.10,NNW,338,3.4,6.3,81,0.00,,,0.00,WUHU216HW,2013-01-21 11:23:00,
2013-01-21 05:28:00,43.0,37.5,30.11,ENE,68,4.9,6.3,81,0.00,,,0.00,WUHU216HW,2013-01-21 11:28:00,
2013-01-21 05:33:00,42.7,36.9,30.11,North,0,4.7,6.9,80,0.00,,,0.00,WUHU216HW,2013-01-21 11:33:00,
2013-01-21 05:38:00,42.5,36.4,30.11,NNW,338,4.0,6.9,79,0.00,,,0.00,WUHU216HW,2013-01-21 11:38:00,
2013-01-21 05:43:00,42.1,36.0,30.12,NNW,338,3.8,6.3,79,0.00,,,0.00,WUHU216HW,2013-01-21 11:43:00,
2013-01-21 05:48:00,41.8,35.0,30.12,North,0,7.4,7.6,77,0.00,,,0.00,WUHU216HW,2013-01-21 11:48:00,
2013-01-21 05:53:00,41.4,34.7,30.12,North,0,6.0,7.6,77,0.00,,,0.00,WUHU216HW,2013-01-21 11:53:00,
2013-01-21 05:58:00,41.4,34.4,30.12,North,0,3.4,7.8,76,0.00,,,0.00,WUHU216HW,2013-01-21 11:58:00,
2013-01-21 06:03:00,41.0,33.7,30.13,NNE,23,4.3,7.8,75,0.00,,,0.00,WUHU216HW,2013-01-21 12:03:00,
2013-01-21 06:08:00,40.7,33.0,30.13,NE,45,5.4,8.1,74,0.00,,,0.00,WUHU216HW,2013-01-21 12:08:00,
2013-01-21 06:13:00,40.3,32.3,30.13,North,0,6.9,8.1,73,0.00,,,0.00,WUHU216HW,2013-01-21 12:13:00,
2013-01-21 06:18:00,40.3,32.3,30.13,NNW,338,6.3,7.6,73,0.00,,,0.00,WUHU216HW,2013-01-21 12:18:00,
2013-01-21 06:23:00,40.0,32.0,30.13,NNW,338,6.9,7.6,73,0.00,,,0.00,WUHU216HW,2013-01-21 12:23:00,
2013-01-21 06:28:00,39.8,31.8,30.13,NNW,338,2.9,8.1,73,0.00,,,0.00,WUHU216HW,2013-01-21 12:28:00,
2013-01-21 06:33:00,39.6,31.6,30.13,North,0,4.5,8.1,73,0.00,,,0.00,WUHU216HW,2013-01-21 12:33:00,
2013-01-21 06:38:00,39.4,31.4,30.13,NNE,23,2.7,6.9,73,0.00,,,0.00,WUHU216HW,2013-01-21 12:38:00,
2013-01-21 06:43:00,39.2,31.2,30.14,NNE,23,4.7,7.6,73,0.00,,,0.00,WUHU216HW,2013-01-21 12:43:00,
2013-01-21 06:48:00,39.1,31.2,30.14,North,0,3.4,7.6,73,0.00,,,0.00,WUHU216HW,2013-01-21 12:48:00,
2013-01-21 06:53:00,38.9,31.0,30.14,NNE,23,2.5,6.5,73,0.00,,,0.00,WUHU216HW,2013-01-21 12:53:00,
2013-01-21 06:58:00,38.7,30.8,30.14,North,0,4.7,6.5,73,0.00,,,0.00,WUHU216HW,2013-01-21 12:58:00,
2013-01-21 07:03:00,38.7,30.4,30.14,ENE,68,3.4,4.7,72,0.00,,,0.00,WUHU216HW,2013-01-21 13:03:00,
2013-01-21 07:08:00,38.5,30.2,30.15,NNW,338,4.3,5.1,72,0.00,,,0.00,WUHU216HW,2013-01-21 13:08:00,
2013-01-21 07:13:00,38.5,30.2,30.15,North,0,4.7,5.1,72,0.00,,,0.00,WUHU216HW,2013-01-21 13:13:00,
2013-01-21 07:18:00,38.3,30.1,30.15,North,0,3.4,5.8,72,0.00,,,0.00,WUHU216HW,2013-01-21 13:18:00,
2013-01-21 07:23:00,38.2,30.0,30.15,ENE,68,2.5,5.8,72,0.00,,,0.00,WUHU216HW,2013-01-21 13:23:00,
2013-01-21 07:28:00,38.2,30.0,30.15,North,0,3.4,5.4,72,0.00,,,0.00,WUHU216HW,2013-01-21 13:28:00,
2013-01-21 07:33:00,38.0,29.8,30.15,NNW,338,4.5,5.4,72,0.00,,,0.00,WUHU216HW,2013-01-21 13:33:00,
2013-01-21 07:38:00,38.0,29.8,30.15,North,0,4.7,5.1,72,0.00,,,0.00,WUHU216HW,2013-01-21 13:38:00,
2013-01-21 07:43:00,38.0,29.8,30.16,North,0,2.5,5.4,72,0.00,,,0.00,WUHU216HW,2013-01-21 13:43:00,
2013-01-21 07:48:00,38.0,29.8,30.16,North,0,2.5,5.4,72,0.00,,,0.00,WUHU216HW,2013-01-21 13:48:00,
2013-01-21 07:53:00,38.3,29.8,30.16,North,0,3.4,4.5,71,0.00,,,0.00,WUHU216HW,2013-01-21 13:53:00,
2013-01-21 07:58:00,38.5,30.0,30.16,NW,315,3.4,5.8,71,0.00,,,0.00,WUHU216HW,2013-01-21 13:58:00,
2013-01-21 08:03:00,38.9,30.2,30.16,NE,45,4.3,5.8,71,0.00,,,0.00,WUHU216HW,2013-01-21 14:03:00,
2013-01-21 08:08:00,39.1,30.1,30.16,NE,45,2.5,5.8,70,0.00,,,0.00,WUHU216HW,2013-01-21 14:08:00,
2013-01-21 08:13:00,39.4,30.4,30.17,NNW,338,3.6,5.1,70,0.00,,,0.00,WUHU216HW,2013-01-21 14:13:00,
2013-01-21 08:18:00,39.6,30.3,30.17,NNE,23,6.5,8.5,69,0.00,,,0.00,WUHU216HW,2013-01-21 14:18:00,
2013-01-21 08:23:00,40.0,30.3,30.17,NNE,23,6.0,8.5,68,0.00,,,0.00,WUHU216HW,2013-01-21 14:23:00,
2013-01-21 08:28:00,40.0,29.8,30.17,NE,45,4.0,7.6,67,0.00,,,0.00,WUHU216HW,2013-01-21 14:28:00,
2013-01-21 08:33:00,40.3,30.2,30.17,NNW,338,4.3,7.6,67,0.00,,,0.00,WUHU216HW,2013-01-21 14:33:00,
2013-01-21 08:38:00,40.7,30.5,30.17,NNW,338,4.3,7.4,67,0.00,,,0.00,WUHU216HW,2013-01-21 14:38:00,
2013-01-21 08:43:00,41.0,30.5,30.17,NNE,23,5.8,7.4,66,0.00,,,0.00,WUHU216HW,2013-01-21 14:43:00,
2013-01-21 08:48:00,41.2,30.3,30.17,NNW,338,6.9,8.5,65,0.00,,,0.00,WUHU216HW,2013-01-21 14:48:00,
2013-01-21 08:53:00,41.4,30.2,30.18,NNE,23,4.9,8.5,64,0.00,,,0.00,WUHU216HW,2013-01-21 14:53:00,
2013-01-21 08:58:00,41.6,30.2,30.18,NNW,338,5.4,8.9,64,0.00,,,0.00,WUHU216HW,2013-01-21 14:58:00,
2013-01-21 09:03:00,41.9,30.3,30.18,NNE,23,6.3,8.9,63,0.00,,,0.00,WUHU216HW,2013-01-21 15:03:00,
2013-01-21 09:08:00,42.5,30.7,30.19,North,0,6.3,8.9,63,0.00,,,0.00,WUHU216HW,2013-01-21 15:08:00,
2013-01-21 09:13:00,42.8,30.7,30.19,North,0,4.7,9.4,62,0.00,,,0.00,WUHU216HW,2013-01-21 15:13:00,
2013-01-21 09:18:00,43.0,30.4,30.19,North,0,7.8,9.8,61,0.00,,,0.00,WUHU216HW,2013-01-21 15:18:00,
2013-01-21 09:23:00,43.6,31.0,30.19,NNW,338,4.0,9.8,61,0.00,,,0.00,WUHU216HW,2013-01-21 15:23:00,
2013-01-21 09:28:00,43.9,31.0,30.19,NNE,23,4.7,7.8,60,0.00,,,0.00,WUHU216HW,2013-01-21 15:28:00,
2013-01-21 09:33:00,44.6,32.0,30.20,NW,315,3.1,9.4,61,0.00,,,0.00,WUHU216HW,2013-01-21 15:33:00,
2013-01-21 09:38:00,45.0,31.6,30.20,NNW,338,4.9,9.4,59,0.00,,,0.00,WUHU216HW,2013-01-21 15:38:00,
2013-01-21 09:43:00,45.4,31.4,30.20,NNW,338,5.4,8.1,58,0.00,,,0.00,WUHU216HW,2013-01-21 15:43:00,
2013-01-21 09:48:00,45.5,31.1,30.20,North,0,5.1,9.8,57,0.00,,,0.00,WUHU216HW,2013-01-21 15:48:00,
2013-01-21 09:53:00,46.1,31.6,30.20,NNW,338,5.4,9.8,57,0.00,,,0.00,WUHU216HW,2013-01-21 15:53:00,
2013-01-21 09:58:00,46.4,32.0,30.20,NW,315,6.9,8.5,57,0.00,,,0.00,WUHU216HW,2013-01-21 15:58:00,
2013-01-21 10:03:00,46.4,31.5,30.20,North,0,6.3,9.6,56,0.00,,,0.00,WUHU216HW,2013-01-21 16:03:00,
2013-01-21 10:08:00,46.6,31.2,30.21,NNW,338,8.5,9.6,55,0.00,,,0.00,WUHU216HW,2013-01-21 16:08:00,
2013-01-21 10:13:00,46.8,31.9,30.21,WNW,293,6.0,9.2,56,0.00,,,0.00,WUHU216HW,2013-01-21 16:13:00,
2013-01-21 10:18:00,47.0,31.6,30.21,NE,45,4.0,9.6,55,0.00,,,0.00,WUHU216HW,2013-01-21 16:18:00,
2013-01-21 10:23:00,47.7,32.2,30.21,NNW,338,9.6,9.6,55,0.00,,,0.00,WUHU216HW,2013-01-21 16:23:00,
2013-01-21 10:28:00,48.1,32.1,30.22,WNW,293,6.3,9.6,54,0.00,,,0.00,WUHU216HW,2013-01-21 16:28:00,
2013-01-21 10:33:00,48.6,32.7,30.22,NNE,23,4.7,10.3,54,0.00,,,0.00,WUHU216HW,2013-01-21 16:33:00,
2013-01-21 10:38:00,49.3,32.9,30.22,North,0,6.9,10.3,53,0.00,,,0.00,WUHU216HW,2013-01-21 16:38:00,
2013-01-21 10:43:00,49.5,32.6,30.22,NNW,338,8.3,9.8,52,0.00,,,0.00,WUHU216HW,2013-01-21 16:43:00,
2013-01-21 10:48:00,50.0,33.6,30.22,ENE,68,4.5,9.8,53,0.00,,,0.00,WUHU216HW,2013-01-21 16:48:00,
2013-01-21 10:53:00,50.8,33.8,30.22,NNE,23,6.3,9.4,52,0.00,,,0.00,WUHU216HW,2013-01-21 16:53:00,
2013-01-21 10:58:00,50.8,33.3,30.22,NE,45,6.0,12.1,51,0.00,,,0.00,WUHU216HW,2013-01-21 16:58:00,
2013-01-21 11:03:00,51.3,34.3,30.21,ESE,113,9.2,12.1,52,0.00,,,0.00,WUHU216HW,2013-01-21 17:03:00,
2013-01-21 11:08:00,51.3,34.3,30.21,North,0,4.3,12.1,52,0.00,,,0.00,WUHU216HW,2013-01-21 17:08:00,
2013-01-21 11:13:00,52.0,34.5,30.22,NNW,338,7.4,12.1,51,0.00,,,0.00,WUHU216HW,2013-01-21 17:13:00,
2013-01-21 11:18:00,52.6,34.9,30.22,North,0,8.1,9.2,51,0.00,,,0.00,WUHU216HW,2013-01-21 17:18:00,
2013-01-21 11:23:00,52.7,34.7,30.21,NE,45,10.3,10.3,50,0.00,,,0.00,WUHU216HW,2013-01-21 17:23:00,
2013-01-21 11:28:00,53.5,35.7,30.22,NNE,23,4.0,10.3,51,0.00,,,0.00,WUHU216HW,2013-01-21 17:28:00,
2013-01-21 11:33:00,54.4,35.6,30.21,ENE,68,6.7,10.3,49,0.00,,,0.00,WUHU216HW,2013-01-21 17:33:00,
2013-01-21 11:38:00,54.4,35.6,30.21,NE,45,8.3,10.1,49,0.00,,,0.00,WUHU216HW,2013-01-21 17:38:00,
2013-01-21 11:43:00,54.5,36.3,30.21,NE,45,7.6,11.4,50,0.00,,,0.00,WUHU216HW,2013-01-21 17:43:00,
2013-01-21 11:48:00,55.1,36.2,30.21,NE,45,9.2,11.4,49,0.00,,,0.00,WUHU216HW,2013-01-21 17:48:00,
2013-01-21 11:53:00,55.6,36.7,30.21,North,0,5.4,9.2,49,0.00,,,0.00,WUHU216HW,2013-01-21 17:53:00,
2013-01-21 11:58:00,55.4,36.6,30.21,NE,45,5.1,10.5,49,0.00,,,0.00,WUHU216HW,2013-01-21 17:58:00,
2013-01-21 12:03:00,55.4,36.6,30.21,NE,45,6.7,10.5,49,0.00,,,0.00,WUHU216HW,2013-01-21 18:03:00,
2013-01-21 12:08:00,56.3,37.5,30.20,NNW,338,6.3,11.9,49,0.00,,,0.00,WUHU216HW,2013-01-21 18:08:00,
2013-01-21 12:13:00,57.1,37.5,30.20,NNW,338,5.4,11.9,48,0.00,,,0.00,WUHU216HW,2013-01-21 18:13:00,
2013-01-21 12:18:00,57.4,37.9,30.20,North,0,5.8,8.7,48,0.00,,,0.00,WUHU216HW,2013-01-21 18:18:00,
2013-01-21 12:23:00,58.0,38.3,30.20,NE,45,6.5,8.7,48,0.00,,,0.00,WUHU216HW,2013-01-21 18:23:00,
2013-01-21 12:28:00,58.0,37.8,30.19,NNW,338,3.6,8.7,47,0.00,,,0.00,WUHU216HW,2013-01-21 18:28:00,
2013-01-21 12:33:00,58.1,37.4,30.19,NE,45,9.2,9.2,46,0.00,,,0.00,WUHU216HW,2013-01-21 18:33:00,
2013-01-21 12:38:00,58.0,37.8,30.19,North,0,4.7,9.2,47,0.00,,,0.00,WUHU216HW,2013-01-21 18:38:00,
2013-01-21 12:43:00,58.7,38.4,30.19,NNE,23,3.8,9.2,47,0.00,,,0.00,WUHU216HW,2013-01-21 18:43:00,
2013-01-21 12:48:00,59.0,38.2,30.18,NE,45,7.4,9.4,46,0.00,,,0.00,WUHU216HW,2013-01-21 18:48:00,
2013-01-21 12:53:00,59.4,39.1,30.18,WNW,293,2.5,9.4,47,0.00,,,0.00,WUHU216HW,2013-01-21 18:53:00,
2013-01-21 12:58:00,59.9,39.0,30.18,NE,45,5.1,8.7,46,0.00,,,0.00,WUHU216HW,2013-01-21 18:58:00,
2013-01-21 13:03:00,59.9,39.0,30.18,NE,45,6.5,7.8,46,0.00,,,0.00,WUHU216HW,2013-01-21 19:03:00,
2013-01-21 13:08:00,60.3,38.8,30.17,NNE,23,8.5,10.3,45,0.00,,,0.00,WUHU216HW,2013-01-21 19:08:00,
2013-01-21 13:13:00,60.5,38.9,30.17,North,0,7.2,10.3,45,0.00,,,0.00,WUHU216HW,2013-01-21 19:13:00,
2013-01-21 13:18:00,60.8,39.8,30.17,NE,45,4.7,8.1,46,0.00,,,0.00,WUHU216HW,2013-01-21 19:18:00,
2013-01-21 13:23:00,61.7,40.1,30.17,NNE,23,5.4,7.4,45,0.00,,,0.00,WUHU216HW,2013-01-21 19:23:00,
2013-01-21 13:28:00,61.9,40.2,30.17,North,0,2.5,7.4,45,0.00,,,0.00,WUHU216HW,2013-01-21 19:28:00,
2013-01-21 13:33:00,61.7,39.5,30.17,NE,45,6.0,8.5,44,0.00,,,0.00,WUHU216HW,2013-01-21 19:33:00,
2013-01-21 13:38:00,61.7,40.1,30.17,NNE,23,4.7,8.5,45,0.00,,,0.00,WUHU216HW,2013-01-21 19:38:00,
2013-01-21 13:43:00,62.5,40.2,30.17,NNW,338,4.9,6.3,44,0.00,,,0.00,WUHU216HW,2013-01-21 19:43:00,
2013-01-21 13:48:00,62.5,39.5,30.17,NNW,338,5.6,7.2,43,0.00,,,0.00,WUHU216HW,2013-01-21 19:48:00,
2013-01-21 13:53:00,62.5,40.2,30.17,NW,315,2.0,7.2,44,0.00,,,0.00,WUHU216HW,2013-01-21 19:53:00,
2013-01-21 13:58:00,62.6,40.3,30.17,NNE,23,3.4,7.6,44,0.00,,,0.00,WUHU216HW,2013-01-21 19:58:00,
2013-01-21 14:03:00,62.6,39.7,30.17,NNE,23,4.0,8.7,43,0.00,,,0.00,WUHU216HW,2013-01-21 20:03:00,
2013-01-21 14:08:00,62.6,40.3,30.17,NE,45,7.6,8.7,44,0.00,,,0.00,WUHU216HW,2013-01-21 20:08:00,
2013-01-21 14:13:00,63.0,41.2,30.17,NE,45,3.8,8.5,45,0.00,,,0.00,WUHU216HW,2013-01-21 20:13:00,
2013-01-21 14:18:00,63.5,41.1,30.17,North,0,4.7,8.5,44,0.00,,,0.00,WUHU216HW,2013-01-21 20:18:00,
2013-01-21 14:23:00,64.1,41.1,30.17,ENE,68,8.1,8.1,43,0.00,,,0.00,WUHU216HW,2013-01-21 20:23:00,
2013-01-21 14:28:00,63.9,41.4,30.16,North,0,4.0,8.1,44,0.00,,,0.00,WUHU216HW,2013-01-21 20:28:00,
2013-01-21 14:33:00,64.1,41.1,30.16,NE,45,6.5,8.1,43,0.00,,,0.00,WUHU216HW,2013-01-21 20:33:00,
2013-01-21 14:38:00,63.2,40.2,30.16,NE,45,4.5,7.4,43,0.00,,,0.00,WUHU216HW,2013-01-21 20:38:00,
2013-01-21 14:43:00,63.2,40.8,30.16,NNW,338,2.7,7.4,44,0.00,,,0.00,WUHU216HW,2013-01-21 20:43:00,
2013-01-21 14:48:00,64.1,41.6,30.16,North,0,4.0,6.7,44,0.00,,,0.00,WUHU216HW,2013-01-21 20:48:00,
2013-01-21 14:53:00,64.4,41.3,30.16,NE,45,6.0,7.2,43,0.00,,,0.00,WUHU216HW,2013-01-21 20:53:00,
2013-01-21 14:58:00,64.3,41.8,30.16,NNW,338,3.6,8.1,44,0.00,,,0.00,WUHU216HW,2013-01-21 20:58:00,
2013-01-21 15:03:00,64.8,42.2,30.16,North,0,4.7,8.1,44,0.00,,,0.00,WUHU216HW,2013-01-21 21:03:00,
2013-01-21 15:08:00,65.3,42.2,30.16,NNE,23,3.4,6.9,43,0.00,,,0.00,WUHU216HW,2013-01-21 21:08:00,
2013-01-21 15:13:00,64.6,41.5,30.15,NE,45,8.1,9.4,43,0.00,,,0.00,WUHU216HW,2013-01-21 21:13:00,
2013-01-21 15:18:00,63.5,41.7,30.16,NNW,338,2.9,9.4,45,0.00,,,0.00,WUHU216HW,2013-01-21 21:18:00,
2013-01-21 15:23:00,63.9,42.0,30.16,North,0,4.5,8.5,45,0.00,,,0.00,WUHU216HW,2013-01-21 21:23:00,
2013-01-21 15:28:00,64.4,42.5,30.15,NNE,23,1.8,6.9,45,0.00,,,0.00,WUHU216HW,2013-01-21 21:28:00,
2013-01-21 15:33:00,65.0,42.4,30.15,NNE,23,3.8,6.3,44,0.00,,,0.00,WUHU216HW,2013-01-21 21:33:00,
2013-01-21 15:38:00,65.3,42.8,30.15,NE,45,3.4,6.3,44,0.00,,,0.00,WUHU216HW,2013-01-21 21:38:00,
2013-01-21 15:43:00,65.5,42.9,30.15,ENE,68,4.7,6.9,44,0.00,,,0.00,WUHU216HW,2013-01-21 21:43:00,
2013-01-21 15:48:00,65.0,42.4,30.16,NE,45,6.3,7.6,44,0.00,,,0.00,WUHU216HW,2013-01-21 21:48:00,
2013-01-21 15:53:00,64.4,42.5,30.15,North,0,5.6,7.6,45,0.00,,,0.00,WUHU216HW,2013-01-21 21:53:00,
2013-01-21 15:58:00,64.1,42.1,30.16,North,0,3.6,8.5,45,0.00,,,0.00,WUHU216HW,2013-01-21 21:58:00,
2013-01-21 16:03:00,64.3,42.3,30.15,North,0,1.8,8.5,45,0.00,,,0.00,WUHU216HW,2013-01-21 22:03:00,
2013-01-21 16:08:00,64.4,42.5,30.16,NE,45,4.5,6.7,45,0.00,,,0.00,WUHU216HW,2013-01-21 22:08:00,
2013-01-21 16:13:00,64.4,42.0,30.15,North,0,4.0,9.2,44,0.00,,,0.00,WUHU216HW,2013-01-21 22:13:00,
2013-01-21 16:18:00,63.9,42.0,30.15,NNE,23,4.0,9.2,45,0.00,,,0.00,WUHU216HW,2013-01-21 22:18:00,
2013-01-21 16:23:00,63.9,42.0,30.15,NNE,23,4.0,7.6,45,0.00,,,0.00,WUHU216HW,2013-01-21 22:23:00,
2013-01-21 16:28:00,63.9,42.6,30.15,NW,315,3.4,5.4,46,0.00,,,0.00,WUHU216HW,2013-01-21 22:28:00,
2013-01-21 16:33:00,63.9,42.6,30.15,NW,315,4.0,8.1,46,0.00,,,0.00,WUHU216HW,2013-01-21 22:33:00,
2013-01-21 16:38:00,63.5,42.2,30.15,North,0,2.9,8.1,46,0.00,,,0.00,WUHU216HW,2013-01-21 22:38:00,
2013-01-21 16:43:00,63.7,42.4,30.15,North,0,3.4,7.6,46,0.00,,,0.00,WUHU216HW,2013-01-21 22:43:00,
2013-01-21 16:48:00,63.5,42.2,30.14,NNE,23,3.4,5.4,46,0.00,,,0.00,WUHU216HW,2013-01-21 22:48:00,
2013-01-21 16:53:00,63.2,42.5,30.15,NE,45,3.1,5.8,47,0.00,,,0.00,WUHU216HW,2013-01-21 22:53:00,
2013-01-21 16:58:00,62.8,42.2,30.15,North,0,2.9,5.8,47,0.00,,,0.00,WUHU216HW,2013-01-21 22:58:00,
2013-01-21 17:03:00,62.5,42.4,30.14,NE,45,4.7,4.7,48,0.00,,,0.00,WUHU216HW,2013-01-21 23:03:00,
2013-01-21 17:08:00,62.3,42.3,30.14,NE,45,2.5,5.4,48,0.00,,,0.00,WUHU216HW,2013-01-21 23:08:00,
2013-01-21 17:13:00,62.3,42.3,30.14,ENE,68,2.7,5.4,48,0.00,,,0.00,WUHU216HW,2013-01-21 23:13:00,
2013-01-21 17:18:00,61.9,42.5,30.14,NE,45,4.5,4.5,49,0.00,,,0.00,WUHU216HW,2013-01-21 23:18:00,
2013-01-21 17:23:00,61.6,42.2,30.14,NW,315,1.8,5.4,49,0.00,,,0.00,WUHU216HW,2013-01-21 23:23:00,
2013-01-21 17:28:00,61.2,41.9,30.14,North,0,2.9,5.4,49,0.00,,,0.00,WUHU216HW,2013-01-21 23:28:00,
2013-01-21 17:33:00,60.8,41.6,30.14,NNE,23,3.4,3.6,49,0.00,,,0.00,WUHU216HW,2013-01-21 23:33:00,
2013-01-21 17:38:00,60.5,41.8,30.14,East,90,2.5,3.6,50,0.00,,,0.00,WUHU216HW,2013-01-21 23:38:00,
2013-01-21 17:43:00,60.3,41.7,30.14,NNE,23,1.3,3.4,50,0.00,,,0.00,WUHU216HW,2013-01-21 23:43:00,
2013-01-21 17:48:00,60.1,41.9,30.14,ENE,68,1.6,2.5,51,0.00,,,0.00,WUHU216HW,2013-01-21 23:48:00,
2013-01-21 17:53:00,60.1,41.9,30.14,NNE,23,1.6,2.0,51,0.00,,,0.00,WUHU216HW,2013-01-21 23:53:00,
2013-01-21 17:58:00,59.8,41.6,30.14,NNW,338,0.4,1.8,51,0.00,,,0.00,WUHU216HW,2013-01-21 23:58:00,
2013-01-21 18:03:00,59.2,41.1,30.14,North,0,0.2,1.6,51,0.00,,,0.00,WUHU216HW,2013-01-22 00:03:00,
2013-01-21 18:08:00,58.9,41.3,30.15,North,0,0.4,1.1,52,0.00,,,0.00,WUHU216HW,2013-01-22 00:08:00,
2013-01-21 18:13:00,58.7,41.1,30.15,NNW,338,0.4,1.6,52,0.00,,,0.00,WUHU216HW,2013-01-22 00:13:00,
2013-01-21 18:18:00,58.3,41.2,30.15,NW,315,1.3,1.8,53,0.00,,,0.00,WUHU216HW,2013-01-22 00:18:00,
2013-01-21 18:23:00,57.4,40.4,30.15,NW,315,1.6,1.8,53,0.00,,,0.00,WUHU216HW,2013-01-22 00:23:00,
2013-01-21 18:28:00,56.5,40.1,30.15,NW,315,1.3,2.0,54,0.00,,,0.00,WUHU216HW,2013-01-22 00:28:00,
2013-01-21 18:33:00,56.0,39.5,30.14,NW,315,1.6,2.0,54,0.00,,,0.00,WUHU216HW,2013-01-22 00:33:00,
2013-01-21 18:38:00,55.6,39.2,30.15,NNW,338,0.9,1.8,54,0.00,,,0.00,WUHU216HW,2013-01-22 00:38:00,
2013-01-21 18:43:00,55.4,39.4,30.14,North,0,2.0,2.0,55,0.00,,,0.00,WUHU216HW,2013-01-22 00:43:00,
2013-01-21 18:48:00,55.4,39.0,30.14,NW,315,1.8,2.2,54,0.00,,,0.00,WUHU216HW,2013-01-22 00:48:00,
2013-01-21 18:53:00,55.1,38.6,30.15,North,0,0.7,2.2,54,0.00,,,0.00,WUHU216HW,2013-01-22 00:53:00,
2013-01-21 18:58:00,54.7,38.4,30.15,NW,315,1.6,2.2,54,0.00,,,0.00,WUHU216HW,2013-01-22 00:58:00,
2013-01-21 19:03:00,54.2,38.3,30.15,NNW,338,1.6,2.7,55,0.00,,,0.00,WUHU216HW,2013-01-22 01:03:00,
2013-01-21 19:08:00,53.6,37.8,30.16,NNW,338,0.7,2.7,55,0.00,,,0.00,WUHU216HW,2013-01-22 01:08:00,
2013-01-21 19:13:00,52.9,37.6,30.16,NNW,338,1.6,2.7,56,0.00,,,0.00,WUHU216HW,2013-01-22 01:13:00,
2013-01-21 19:18:00,52.4,37.1,30.16,WNW,293,1.8,3.4,56,0.00,,,0.00,WUHU216HW,2013-01-22 01:18:00,
2013-01-21 19:23:00,52.2,36.9,30.16,North,0,2.5,3.4,56,0.00,,,0.00,WUHU216HW,2013-01-22 01:23:00,
2013-01-21 19:28:00,51.8,36.5,30.16,NNW,338,2.2,3.1,56,0.00,,,0.00,WUHU216HW,2013-01-22 01:28:00,
2013-01-21 19:33:00,51.5,36.2,30.15,NW,315,1.8,3.1,56,0.00,,,0.00,WUHU216HW,2013-01-22 01:33:00,
2013-01-21 19:38:00,51.5,36.2,30.15,North,0,1.3,2.7,56,0.00,,,0.00,WUHU216HW,2013-01-22 01:38:00,
2013-01-21 19:43:00,51.7,36.4,30.15,NNW,338,0.9,3.1,56,0.00,,,0.00,WUHU216HW,2013-01-22 01:43:00,
2013-01-21 19:48:00,51.7,35.9,30.16,North,0,2.0,3.4,55,0.00,,,0.00,WUHU216HW,2013-01-22 01:48:00,
2013-01-21 19:53:00,51.3,35.7,30.16,North,0,2.5,3.6,55,0.00,,,0.00,WUHU216HW,2013-01-22 01:53:00,
2013-01-21 19:58:00,50.8,35.1,30.16,North,0,2.0,3.6,55,0.00,,,0.00,WUHU216HW,2013-01-22 01:58:00,
2013-01-21 20:03:00,50.6,35.4,30.16,NNE,23,2.2,4.0,56,0.00,,,0.00,WUHU216HW,2013-01-22 02:03:00,
2013-01-21 20:08:00,50.2,35.1,30.16,North,0,2.5,4.0,56,0.00,,,0.00,WUHU216HW,2013-01-22 02:08:00,
2013-01-21 20:13:00,50.0,34.9,30.16,North,0,2.7,4.7,56,0.00,,,0.00,WUHU216HW,2013-01-22 02:13:00,
2013-01-21 20:18:00,50.0,34.9,30.17,NE,45,4.0,4.7,56,0.00,,,0.00,WUHU216HW,2013-01-22 02:18:00,
2013-01-21 20:23:00,49.7,34.6,30.17,NNW,338,2.5,4.3,56,0.00,,,0.00,WUHU216HW,2013-01-22 02:23:00,
2013-01-21 20:28:00,49.3,34.2,30.17,NNW,338,2.9,4.3,56,0.00,,,0.00,WUHU216HW,2013-01-22 02:28:00,
2013-01-21 20:33:00,49.0,33.9,30.17,NNE,23,2.9,4.0,56,0.00,,,0.00,WUHU216HW,2013-01-22 02:33:00,
2013-01-21 20:38:00,49.0,33.9,30.17,NNE,23,3.6,4.0,56,0.00,,,0.00,WUHU216HW,2013-01-22 02:38:00,
2013-01-21 20:43:00,48.8,33.8,30.17,NE,45,3.4,4.0,56,0.00,,,0.00,WUHU216HW,2013-01-22 02:43:00,
2013-01-21 20:48:00,48.6,33.6,30.17,NE,45,3.6,4.0,56,0.00,,,0.00,WUHU216HW,2013-01-22 02:48:00,
2013-01-21 20:53:00,48.4,33.4,30.17,ENE,68,2.7,4.0,56,0.00,,,0.00,WUHU216HW,2013-01-22 02:53:00,
2013-01-21 20:58:00,48.1,33.5,30.17,NNE,23,3.6,4.7,57,0.00,,,0.00,WUHU216HW,2013-01-22 02:58:00,
2013-01-21 21:03:00,47.9,32.9,30.17,North,0,2.7,5.6,56,0.00,,,0.00,WUHU216HW,2013-01-22 03:03:00,
2013-01-21 21:08:00,47.7,32.7,30.17,NNE,23,3.4,5.6,56,0.00,,,0.00,WUHU216HW,2013-01-22 03:08:00,
2013-01-21 21:13:00,47.5,32.6,30.17,North,0,3.1,5.1,56,0.00,,,0.00,WUHU216HW,2013-01-22 03:13:00,
2013-01-21 21:18:00,47.2,32.2,30.17,NE,45,3.6,4.7,56,0.00,,,0.00,WUHU216HW,2013-01-22 03:18:00,
2013-01-21 21:23:00,46.8,32.3,30.17,NNE,23,3.8,4.7,57,0.00,,,0.00,WUHU216HW,2013-01-22 03:23:00,
2013-01-21 21:28:00,46.8,32.3,30.18,North,0,3.8,4.5,57,0.00,,,0.00,WUHU216HW,2013-01-22 03:28:00,
2013-01-21 21:33:00,46.8,32.3,30.17,NE,45,4.0,4.5,57,0.00,,,0.00,WUHU216HW,2013-01-22 03:33:00,
2013-01-21 21:38:00,46.4,32.0,30.18,North,0,2.5,4.5,57,0.00,,,0.00,WUHU216HW,2013-01-22 03:38:00,
2013-01-21 21:43:00,46.3,31.8,30.18,NNW,338,3.4,4.0,57,0.00,,,0.00,WUHU216HW,2013-01-22 03:43:00,
2013-01-21 21:48:00,46.1,31.6,30.18,North,0,2.5,3.8,57,0.00,,,0.00,WUHU216HW,2013-01-22 03:48:00,
2013-01-21 21:53:00,45.7,31.3,30.18,NNE,23,1.8,3.8,57,0.00,,,0.00,WUHU216HW,2013-01-22 03:53:00,
2013-01-21 21:58:00,45.5,31.1,30.18,NNW,338,2.2,4.0,57,0.00,,,0.00,WUHU216HW,2013-01-22 03:58:00,
2013-01-21 22:03:00,45.4,31.0,30.18,North,0,2.0,4.0,57,0.00,,,0.00,WUHU216HW,2013-01-22 04:03:00,
2013-01-21 22:08:00,45.2,30.8,30.19,NNW,338,1.8,4.0,57,0.00,,,0.00,WUHU216HW,2013-01-22 04:08:00,
2013-01-21 22:13:00,45.0,30.7,30.19,North,0,2.9,3.8,57,0.00,,,0.00,WUHU216HW,2013-01-22 04:13:00,
2013-01-21 22:18:00,45.0,30.7,30.19,NNE,23,2.0,3.4,57,0.00,,,0.00,WUHU216HW,2013-01-22 04:18:00,
2013-01-21 22:23:00,44.8,30.5,30.19,North,0,1.1,2.9,57,0.00,,,0.00,WUHU216HW,2013-01-22 04:23:00,
2013-01-21 22:28:00,44.6,30.3,30.19,North,0,1.8,2.7,57,0.00,,,0.00,WUHU216HW,2013-01-22 04:28:00,
2013-01-21 22:33:00,44.3,30.4,30.19,NNW,338,1.1,2.5,58,0.00,,,0.00,WUHU216HW,2013-01-22 04:33:00,
2013-01-21 22:38:00,43.9,30.1,30.19,North,0,0.7,2.5,58,0.00,,,0.00,WUHU216HW,2013-01-22 04:38:00,
2013-01-21 22:43:00,44.1,30.2,30.19,North,0,1.6,2.0,58,0.00,,,0.00,WUHU216HW,2013-01-22 04:43:00,
2013-01-21 22:48:00,43.9,30.1,30.19,North,0,0.9,2.0,58,0.00,,,0.00,WUHU216HW,2013-01-22 04:48:00,
2013-01-21 22:53:00,43.7,29.9,30.19,North,0,1.8,2.2,58,0.00,,,0.00,WUHU216HW,2013-01-22 04:53:00,
2013-01-21 22:58:00,43.6,29.7,30.19,NNW,338,1.6,2.5,58,0.00,,,0.00,WUHU216HW,2013-01-22 04:58:00,
2013-01-21 23:00:00,43.6,29.7,30.19,North,0,3.1,3.1,58,0.00,,,0.00,WUHU216HW,2013-01-22 05:00:00,
2013-01-21 23:01:00,43.6,29.7,30.19,NE,45,2.7,3.1,58,0.00,,,0.00,WUHU216HW,2013-01-22 05:01:00,
2013-01-21 23:02:00,43.6,29.7,30.19,North,0,2.0,3.1,58,0.00,,,0.00,WUHU216HW,2013-01-22 05:02:00,
2013-01-21 23:03:00,43.4,29.5,30.19,North,0,2.7,3.1,58,0.00,,,0.00,WUHU216HW,2013-01-22 05:03:00,
2013-01-21 23:08:00,43.2,29.3,30.19,NNW,338,2.7,3.1,58,0.00,,,0.00,WUHU216HW,2013-01-22 05:08:00,
2013-01-21 23:13:00,43.0,29.2,30.19,NNW,338,1.6,3.1,58,0.00,,,0.00,WUHU216HW,2013-01-22 05:13:00,
2013-01-21 23:18:00,42.8,29.0,30.19,North,0,2.2,3.1,58,0.00,,,0.00,WUHU216HW,2013-01-22 05:18:00,
2013-01-21 23:23:00,42.8,29.0,30.19,North,0,1.6,3.4,58,0.00,,,0.00,WUHU216HW,2013-01-22 05:23:00,
2013-01-21 23:28:00,42.8,29.0,30.19,NNE,23,2.2,3.4,58,0.00,,,0.00,WUHU216HW,2013-01-22 05:28:00,
2013-01-21 23:33:00,42.7,28.9,30.19,NE,45,3.1,3.4,58,0.00,,,0.00,WUHU216HW,2013-01-22 05:33:00,
2013-01-21 23:38:00,42.5,28.7,30.19,NE,45,3.1,3.8,58,0.00,,,0.00,WUHU216HW,2013-01-22 05:38:00,
2013-01-21 23:43:00,42.3,28.5,30.19,NE,45,4.0,4.0,58,0.00,,,0.00,WUHU216HW,2013-01-22 05:43:00,
2013-01-21 23:48:00,42.1,28.8,30.19,NE,45,2.9,4.3,59,0.00,,,0.00,WUHU216HW,2013-01-22 05:48:00,
2013-01-21 23:53:00,41.9,28.6,30.19,NNE,23,4.0,4.3,59,0.00,,,0.00,WUHU216HW,2013-01-22 05:53:00,
2013-01-21 23:58:00,41.8,28.4,30.19,ENE,68,2.9,4.3,59,0.00,,,0.00,WUHU216HW,2013-01-22 05:58:00,